Tracking 33747 objects as of 11-Apr-2026
HD Live streaming from Space Station
objects crossing your sky now

COSMOS 2144

Track COSMOS 2144 now!
10-day predictions
COSMOS 2144 is classified as:


NORAD ID: 21300
Int'l Code: 1991-033B
Perigee: 1,417.2 km
Apogee: 1,423.3 km
Inclination: 82.6 °
Period: 114.1 minutes
Semi major axis: 7791 km
RCS: 1.1059 m2 (large)
Launch date: May 16, 1991
Source: Commonwealth of Independent States (former USSR) (CIS)
Launch site: PLESETSK MISSILE AND SPACE COMPLEX (PKMTR)
Your satellite tracking list
Your tracking list is empty




NASA's NSSDC Master Catalog

Two Line Element Set (TLE):
1 21300U 91033B   26101.18684897  .00000015  00000-0  23686-4 0  9998
2 21300  82.5830  12.1434 0003939 266.9494  93.1147 12.62390820608005
Source of the keplerian elements: AFSPC